Regional Weather Roundup
Issued by NWS

Home | Current Version | Previous Version | Graphics & Text | Print | Product List | Glossary On
Versions: 1 2 3 4 5 6 7 8 9 10 11 12 13 14 15 16 17 18 19 20 21 22 23 24 25 26 27 28 29 30 31 32 33 34 35 36 37 38 39 40 41 42 43 44 45 46 47 48 49 50
000
ASUS43 KBIS 271320
RWRND

NORTH DAKOTA REGIONAL WEATHER ROUNDUP
NATIONAL WEATHER SERVICE BISMARCK ND
800 AM CDT FRI MAR 27 2015

NOTE: "FAIR" INDICATES FEW OR NO CLOUDS BELOW 12,000 FEET WITH NO
SIGNIFICANT WEATHER AND/OR OBSTRUCTIONS TO VISIBILITY.


NDZ001>003-009>011-017-271400-
NORTHWEST NORTH DAKOTA

CITY           SKY/WX    TMP DP  RH WIND       PRES   REMARKS
WILLISTON      MOCLDY    35  30  82 S6        29.95S
MINOT          LGT SNOW  28  24  85 SE12      30.01F VSB 3/4 WCI  18
MINOT AFB      SNOW      28  28 100 S15       30.00F VSB 1/2 WCI  17
$$

NDZ018>021-031>035-040>046-271400-
SOUTHWEST NORTH DAKOTA

CITY           SKY/WX    TMP DP  RH WIND       PRES   REMARKS
BISMARCK       CLOUDY    26  16  65 S14       30.12F WCI  14
DICKINSON      MOCLDY    32  28  85 S17       29.95F
GARRISON         N/A     27  24  89 S12       30.04F WCI  17
HETTINGER ARPT PTCLDY    31  27  85 SE8       30.03F
$$

NDZ004>008-012>016-024-026-027-054-271400-
NORTHEAST NORTH DAKOTA

CITY           SKY/WX    TMP DP  RH WIND       PRES   REMARKS
GRAND FORKS    CLOUDY    17  12  80 S5        30.24F WCI  10
GRND FRKS AFB  PTCLDY    19  14  81 S6        30.22F WCI  11
DEVILS LAKE    CLOUDY    23  16  74 S10       30.13F WCI  12
$$

NDZ022-023-025-028>030-036>039-047>053-271400-
SOUTHEAST NORTH DAKOTA

CITY           SKY/WX    TMP DP  RH WIND       PRES   REMARKS
FARGO          PTCLDY    13   9  84 S5        30.26F WCI   5
JAMESTOWN      CLOUDY    22  16  78 S12       30.17F WCI  10
$$



USA.gov is the U.S. government's official web portal to all federal, state and local government web resources and services.